World > North America > United States > Texas

Jefferson, Texas Regional Weather

Lat: 32.76N, Lon: 94.35W
Wx Zone: TXZ126Web Search
Jefferson Weather Warning NWS WEATHER ALERT FOR THE JEFFERSON, TX AREA - Issued: 656 AM CDT Mon Apr 12 2021 Jefferson Weather Warning  

Helpful Tip: Abbreviated, 7 Day, 14 Day Forecasts. There is a weather forecast for every taste.

Feedback


°F Click to change Jefferson hourly weather to Imperial units.Click to change Jefferson hourly weather to Metric units. °C
Jefferson Weather Map
UTC Time: 4/12/2021, 16:19
Your Time:

Jefferson, TX Regional Weather

Expires:202104121700;;443150
ASUS44 KFWD 121615
RWRTX 
NORTH TEXAS HOURLY WEATHER ROUNDUP
NATIONAL WEATHER SERVICE FORT WORTH TX
1100 AM CDT MON APR 12 2021

NOTE: "FAIR" INDICATES FEW OR NO CLOUDS BELOW 12,000 FEET WITH NO
SIGNIFICANT WEATHER AND/OR OBSTRUCTIONS TO VISIBILITY.


TXZ095>097-106>112-122>126-135>138-148>153-164>167-121700-
EAST TEXAS
  
CITY           SKY/WX    TMP DP  RH WIND       PRES   REMARKS
PARIS          FAIR      73  47  39 S15       29.86S                  
SULPHUR SPRNGS FAIR      72  49  43 CALM      29.88R                  
MOUNT PLEASANT FAIR      72  52  49 SE9       29.87S                  
GILMER         FAIR      74  49  41 SE5       29.87S                  
MINEOLA        FAIR      72  52  49 S8        29.86S                  
TYLER          FAIR      76  48  37 S9        29.87R                  
LONGVIEW       FAIR      76  46  34 S6        29.87R                  
MARSHALL       FAIR      74  49  41 S5        29.90R                  
ATHENS         FAIR      73  52  46 S5        29.86R                  
PALESTINE      FAIR      75  52  43 SE10G16   29.86S                  
JACKSONVILLE   FAIR      75  49  39 CALM      29.89R                  
HENDERSON      FAIR      76  45  32 SE8       29.88R                  
CENTER         FAIR      73  54  49 SE5       29.89R                  
NACOGDOCHES    FAIR      74  56  53 VRB6      29.89R                  
LUFKIN         FAIR      76  55  48 SE9       29.87R                  
$$

SUPPLEMENTAL OBSERVATIONS (NWS FORT WORTH AREA)
  
CITY           SKY/WX    TMP DP  RH WIND       PRES   REMARKS
CADDO GRASSLND   N/A     73  46  38 S9          N/A                   
LBJ GRASSLAND    N/A     70  55  60 S5          N/A                   
POSSUM KINGDOM   N/A     64  48  55 W8          N/A                   
GRANBURY         N/A     72  59  64 SE8         N/A                   
COMANCHE         N/A    N/A N/A N/A W2          N/A                   
MCGREGOR         N/A     75  64  69 S10G21      N/A                   
TEMPLE           N/A     70  63  78 S15         N/A                   
LAKE LIMESTONE   N/A     75  55  50 S7          N/A                   
$$

SUPPLEMENTAL OBSERVATIONS (NWS NORMAN AREA)
  
CITY           SKY/WX    TMP DP  RH WIND       PRES   REMARKS
GOODLETT         N/A     58  29  34 NE22      29.95S                  
ODELL            N/A     58  32  37 NE21      29.95R                  
CROWELL          N/A     57  32  39 NE18      29.95R                  
KNOX CITY        N/A     59  33  37 N16       29.92R                  
SEYMOUR          N/A     58  36  43 N17       29.91R                  
$$

SUPPLEMENTAL OBSERVATIONS (NWS SAN ANGELO AREA)
  
CITY           SKY/WX    TMP DP  RH WIND       PRES   REMARKS
WEINERT          N/A     58  37  43 NE18      29.92R                  
HASKELL          N/A     58  38  48 N17       29.92R                  
THROCKMORTON     N/A     60  42  52 N8        29.89R                  
STAMFORD         N/A     59  41  52 NE15      29.91R                  
CLYDE            N/A     60  46  59 N13       29.89S                  
HAMBY            N/A     61  43  51 N9          N/A                   
$$

SUPPLEMENTAL OBSERVATIONS (NWS SHREVEPORT AREA)
  
CITY           SKY/WX    TMP DP  RH WIND       PRES   REMARKS
TEXARKANA        N/A     79  48  34 S5          N/A                   
CADDO LAKE       N/A     81  50  34 SW3         N/A                   
LUFKIN           N/A     77  55  47 MISG        N/A                   
N SABINE NF      N/A     79  55  44 MISG        N/A                   
$$

SUPPLEMENTAL OBSERVATIONS ARE A COLLECTION OF AUTOMATED INSTRUMENTS
THAT ARE MAINTAINED BY A VARIETY OF FEDERAL AND STATE AGENCIES. 
CERTAIN ELEMENTS...SUCH AS HUMIDITY VALUES AND SUSTAINED WIND 
SPEEDS...MAY BE APPROXIMATED.

  

SKY/WX - Weather  TMP - Temperature  DP - Dew Point  RH - Relative Humidity
WIND - Wind Direction/Speed PRES - Barometric Pressure VSB - Visibility
WCI - Wind Chill Index E13G22 Wind - East Wind 13 mph/Gusts of 22 mph